Regional Weather Roundup
Issued by NWS Newport/Morehead, NC

Current Version | Previous Version | Graphics & Text | Print | Product List | Glossary Off
Versions: 1 2 3 4 5 6 7 8 9 10 11 12 13 14 15 16 17 18 19 20 21 22 23 24 25 26 27 28 29 30 31 32 33 34 35 36 37 38 39 40 41 42 43 44 45 46 47 48 49 50

000
ASUS42 KMHX 220025
RWRMHX
WEATHER ROUNDUP FOR EASTERN NORTH CAROLINA
NATIONAL WEATHER SERVICE NEWPORT/MOREHEAD CITY NC
800 PM EDT FRI JUL 21 2017

NOTE: "FAIR" INDICATES FEW OR NO CLOUDS BELOW 12,000 FEET
WITH NO SIGNIFICANT WEATHER AND/OR OBSTRUCTIONS TO VISIBILITY

NCZ015>017-031-032-045>047-102-103-220100-
NORTH COAST

CITY           SKY/WX    TMP DP  RH WIND       PRES   REMARKS
EDENTON        CLOUDY    87  76  70 SW12      29.95R
ELIZABETH CITY CLOUDY    85  75  72 S5        29.93R
KITTY HAWK     MOCLDY    85  77  77 SW5       29.94R
MANTEO         PTCLDY    85  78  81 SW15      29.96R

$$

NCZ045>047-081-094-103-104-220100-
CENTRAL COAST

CITY           SKY/WX    TMP DP  RH WIND       PRES   REMARKS
FRISCO         CLEAR     81  75  82 SW12      29.98R

$$

NCZ095-097-098-100-101-220100-
SOUTHERN COAST

CITY           SKY/WX    TMP DP  RH WIND       PRES   REMARKS
BEAUFORT       CLEAR     83  77  82 SW14      30.00R
CEDAR ISLAND   NOT AVBL
JACKSONVILLE   CLEAR     84  76  76 S9        29.98R
PINEY ISLAND   PTCLDY   N/A N/A N/A S10       29.98R
WILMINGTON     CLEAR     83  72  69 SW12      30.00R


$$

NCZ011>013-027>030-043-044-078>080-089-090>093-098-220100-
COASTAL PLAIN

CITY           SKY/WX    TMP DP  RH WIND       PRES   REMARKS
AHOSKIE          N/A     82  77  83 S6        29.93S
CLINTON        CLEAR     81  74  80 CALM      29.98R
ELIZABETHTOWN  NOT AVBL
GOLDSBORO      MOCLDY    81  75  81 S7        29.95S
GREENVILLE     CLOUDY    88  73  62 SW5       29.97S
HAVELOCK       CLEAR     83  73  72 SW14      29.99R
KENANSVILLE    CLOUDY    86  75  70 W3        29.97R
KINSTON        MOCLDY    84  70  61 SW6       29.98R
NEW BERN       CLEAR     84  74  71 S8        29.98R
RICHLANDS      CLEAR     85  77  77 S8        29.98R
ROCKY MOUNT    CLOUDY    83  72  69 S9        29.95R
WASHINGTON     CLOUDY    82  74  77 N8        29.97R
WHITEVILLE     CLEAR     85  72  66 S5        29.99S

$$

AMZ130-135-150-152-154-156-158-170-250-252-270-ANZ085-086-088-633-658-670-220100-
MARINE OBSERVATIONS

STATION/POSITION TIME  TEMP    WIND        PRES    WAVE   SWELL
                       AIR SEA DIR/SP/G            HT/PER HT/PER
                 (UTC) (F)     (DEG/KT/KT) (MB)    (FT/S) (FT/S)
CHESAPEAKE LIGHT NOT AVBL
64 E VA BEACH    2350   81 81  210/ 14/ 16 1013.8    3/ 5   2/ 8
DUCK             0000   86 63  200/ 11/ 13 1013.4
2 E DUCK         0000      72                N/A     2/13   2/13
OREGON INLET     0000   83 87  200/ 16/ 18 1014.5
13E OREGON INLT  2348      81                N/A     3/ 8   2/ 8
HATTERAS CG      0000   80 82  220/  9/ 13 1015.3
DIAMOND BUOY     2350   83 84  220/ 17/ 21 1014.8    4/ 4   2/10
CAPE LOOKOUT     0000   82     220/ 12/ 15 1015.6
BEAUFORT LAB     0000   82 79  230/  4/  9 1015.2
30 SE NEW RVR IN 0008   81 82  240/ 14/ 16 1016.0
30 SE NEW RVR IN 2343      82                N/A     3/ 4   2/11
27 SE WRIGHTSVLE 0008   82 81  220/ 14/ 17 1015.9
5 SE WRIGHTSVLE  0008   82 82  210/  8/ 16 1015.7
225 S CAPE HAT   2350   83 84  210/ 10/ 12 1018.3    3/10   3/10
41 SE CHARLESTON 0010   83 84  190/ 14/ 17 1016.4

$$




USA.gov is the U.S. government's official web portal to all federal, state and local government web resources and services.